Regional Weather Roundup
Issued by NWS

Home | Current Version | Previous Version | Graphics & Text | Print | Product List | Glossary On
Versions: 1 2 3 4 5 6 7 8 9 10 11 12 13 14 15 16 17 18 19 20 21 22 23 24 25 26 27 28 29 30 31 32 33 34 35 36 37 38 39 40 41 42 43 44 45 46 47 48 49 50
000
ASUS44 KMEG 270410
RWRTN
TENNESSEE HOURLY STATE WEATHER ROUNDUP
NATIONAL WEATHER SERVICE MEMPHIS TN
1000 PM CST MON JAN 26 2015

TNZ002-004-019-021-049-052-054-088>092-270500-
WEST TENNESSEE

CITY           SKY/WX    TMP DP  RH WIND       PRES   REMARKS
MEMPHIS INTL   CLEAR     42  32  67 CALM      29.95F
NWS MEMPHIS      N/A     37 N/A N/A MISG        N/A
JACKSON        CLEAR     28  25  88 E3        29.94F
DYERSBURG      CLEAR     34  19  55 CALM      29.95F
UNION CITY     CLEAR     28  27  93 CALM      29.93R
PARIS          CLOUDY    36  28  75 SE3       29.94S
LEXINGTON      CLEAR     30  28  93 CALM      29.94F
SAVANNAH       CLEAR     28  28 100 CALM      29.97F
$$

TNZ008-025-027-028-033-062-065-066-270500-
NORTH MIDDLE TENNESSEE

CITY           SKY/WX    TMP DP  RH WIND       PRES   REMARKS
NASHVILLE      CLOUDY    34  31  88 E3        29.97F
CLARKSVILLE    CLOUDY    34  31  88 E5        29.96S WCI  30
SMYRNA         CLOUDY    33  31  93 CALM      29.99S
COOKEVILLE     MOCLDY    30  30 100 CALM      29.93F
CROSSVILLE     CLOUDY    29  26  89 W6        29.91F WCI  23
$$

TNZ061-075-076-078-094-096-097-270500-
SOUTH MIDDLE TENNESSEE

CITY           SKY/WX    TMP DP  RH WIND       PRES   REMARKS
FAYETTEVILLE   CLOUDY    34  28  80 MISG      29.95S
TULLAHOMA      CLOUDY    32  28  86 CALM      29.95S
WINCHESTER     CLOUDY    32  30  93 CALM      29.95S
MCMINNVILLE    CLOUDY    30  30 100 CALM      29.95F
COLUMBIA       CLOUDY    37  37 100 SW3       29.94F
SHELBYVILLE    CLOUDY    34  32  93 CALM      29.97S
$$

TNZ017-018-042-046-047-270500-
NORTHEAST TENNESSEE

CITY           SKY/WX    TMP DP  RH WIND       PRES   REMARKS
TRI CITIES     CLOUDY    30  24  78 W9        29.88F WCI  22
ELIZABETHTON   CLOUDY    27  23  86 VRB7      29.86S WCI  19
$$

TNZ012-013-036-069-073-074-270500-
CENTRAL EAST TENNESSEE

CITY           SKY/WX    TMP DP  RH WIND       PRES   REMARKS
KNOXVILLE      FLURRIES  30  28  92 SW7       29.95R WCI  23
OAK RIDGE      CLOUDY    32  28  85 CALM      29.96S
GATLINBURG     CLOUDY    28  25  86 W6        29.93S WCI  22
MORRISTOWN     CLOUDY    30  25  80 NW7       29.91S WCI  23
$$

TNZ083-085-099-270500-
SOUTHEAST TENNESSEE

CITY           SKY/WX    TMP DP  RH WIND       PRES   REMARKS
CHATTANOOGA    CLOUDY    35  30  82 CALM      29.97F
$$

SKY/WX REPORTED AS FAIR MEANS FEW OR NO CLOUDS BELOW
12 THOUSAND FEET.



USA.gov is the U.S. government's official web portal to all federal, state and local government web resources and services.